CST,Max TemperatureF,Mean TemperatureF,Min TemperatureF,Max Dew PointF,MeanDew PointF,Min DewpointF,Max Humidity, Mean Humidity, Min Humidity, Max Sea Level PressureIn, Mean Sea Level PressureIn, Min Sea Level PressureIn, Max VisibilityMiles, Mean VisibilityMiles, Min VisibilityMiles, Max Wind SpeedMPH, Mean Wind SpeedMPH, Max Gust SpeedMPH,PrecipitationIn, CloudCover, Events, WindDirDegrees
2012-2-1,37,34,28,36,33,28,100,95,81,30.14,30.07,29.90,10,8,1,16,8,20,0.00,5,,287
2012-2-2,33,28,24,34,30,25,100,100,100,30.35,30.23,30.14,7,2,0,9,4,,0.00,8,Fog,270
2012-2-3,32,31,30,32,31,30,100,100,100,30.45,30.40,30.37,3,1,0,15,8,,0.00,8,Fog-Snow,51
2012-2-4,42,37,32,32,30,25,100,84,57,30.35,30.25,30.19,10,10,5,18,11,20,0.00,3,,28
2012-2-5,41,34,28,30,27,23,100,81,61,30.30,30.25,30.19,10,9,1,15,8,,0.00,1,,326
2012-2-6,32,30,28,30,29,28,100,96,87,30.19,30.13,30.07,10,7,2,20,14,23,0.00,6,,249
2012-2-7,32,29,26,32,26,19,100,85,69,30.40,30.29,30.16,10,8,3,22,11,26,0.00,8,,15
2012-2-8,32,26,19,18,14,10,80,64,44,30.40,30.34,30.27,10,10,10,13,7,16,0.00,0,,290
2012-2-9,33,25,17,23,18,12,100,70,44,30.25,30.15,30.03,10,10,10,23,12,30,0.00,2,,232
2012-2-10,32,24,17,32,22,7,100,83,63,30.14,29.96,29.88,10,7,0,30,15,40,0.00,8,Snow,289
2012-2-11,21,14,8,0,-5,-8,62,43,30,30.38,30.34,30.28,10,10,10,23,14,30,0.00,0,,307
2012-2-12,32,23,14,5,1,0,57,42,25,30.33,30.29,30.22,10,10,10,21,15,28,0.00,0,,279
2012-2-13,32,24,15,32,19,7,100,78,47,30.15,29.98,29.80,10,7,1,16,10,21,0.00,6,Snow,189
2012-2-14,33,32,30,32,31,28,100,98,87,29.87,29.79,29.74,10,6,2,14,9,17,0.00,8,Snow,215
2012-2-15,44,38,32,36,33,30,100,92,66,30.00,29.96,29.94,10,6,2,20,11,,0.00,6,,175
2012-2-16,42,38,32,34,29,21,100,76,42,30.09,30.02,29.95,10,7,0,24,10,31,0.00,3,Fog,285
2012-2-17,44,35,26,32,27,23,100,74,57,30.11,30.04,29.94,10,10,10,21,11,26,0.00,3,,224
2012-2-18,37,32,26,27,20,12,93,64,36,30.22,30.14,30.03,10,10,10,14,8,18,0.00,1,,350
2012-2-19,39,32,24,25,21,18,93,68,42,30.19,30.15,30.11,10,10,10,8,4,,0.00,0,,169
2012-2-20,41,32,24,27,22,19,86,67,45,30.22,30.13,29.90,10,10,10,21,11,25,0.00,0,,157
2012-2-21,41,36,32,36,32,27,100,89,65,29.80,29.62,29.57,10,6,1,29,12,38,0.00,7,Snow,212
2012-2-22,42,36,30,32,30,27,100,85,61,29.63,29.48,29.40,10,10,7,14,9,,0.00,4,Rain,234
2012-2-23,37,32,28,32,30,27,100,90,65,29.54,29.49,29.43,10,6,0,14,7,,0.05,6,Fog-Snow,47
2012-2-24,33,28,23,32,26,12,100,87,59,29.89,29.67,29.49,10,6,1,26,15,31,0.00,8,Snow,307
2012-2-25,26,20,14,14,11,9,93,70,55,30.24,30.14,29.93,10,10,10,16,12,21,0.00,0,,249
2012-2-26,44,29,14,32,24,12,93,71,56,30.22,29.99,29.86,10,10,7,29,15,39,0.00,1,,178
2012-2-27,33,30,26,21,20,18,74,65,55,30.41,30.23,30.02,10,10,10,24,19,31,0.00,3,,269
2012-2-28,33,30,26,28,24,19,81,77,69,30.42,30.26,29.97,10,10,7,15,6,21,0.00,7,Rain-Snow,125
2012-2-29,46,39,32,45,36,30,100,91,61,29.66,29.45,29.38,10,6,0,33,17,41,0.16,8,Fog-Rain-Snow-Thunderstorm,196